{"data":{"norad_id":57119,"epoch":"2026-05-25T05:11:37.919904Z","epoch_age_seconds":46519,"freshness":"FRESH","line1":"1 57119U 23090U   26145.21641111 -.00003988  00000+0 -13557-3 0  9995","line2":"2 57119  43.0007 209.5793 0001363 286.6023  73.4678 15.27556692162039","mean_motion":15.27556692,"eccentricity":0.0001363,"inclination_deg":43.0007,"raan_deg":209.5793,"arg_perigee_deg":286.6023,"mean_anomaly_deg":73.4678,"bstar":-0.00013557,"rev_number":16203,"period_min":94.268187069027,"perigee_km":482.18370028636,"apogee_km":484.05407864183,"semimajor_km":6861.2558894641,"source":"CELESTRAK","updated_at":"2026-05-25T13:38:18.242911Z"}}